Location: Unspecified
(54.1780°N, 0.0000°E)
Time: 16:51:33
(UTC+00:00)

Altair - Pass Details

Date: 23 June 2019
Orbit: 1501 x 1683 km, 47.2° (Epoch: 20 July)

Event Time Altitude Azimuth Distance (km) Brightness Sun altitude
Rises 20:05:01 0° 229° (SW) 4,706 10.2 2.8°
Reaches altitude 10° 20:08:11 10° 224° (SW) 3,747 9.6 2.4°
Maximum altitude 20:17:03 45° 155° (SSE) 2,069 7.9 1.4°
Drops below altitude 10° 20:26:14 10° 88° (E) 3,889 9.2 0.4°
Sets 20:29:35 0° 82° (E) 4,898 9.8 0.0°
